GFSWCAN_sfc_30mbdewp_057.txt.gz
Dewpoint
41 41 44 42 42 41 40 40 39 38 38 38 39 39 40 41 41 41 40 46 42 41 42 46 45 39 38 36 33 39 38 42 40 36 35 32 28 31 29 30 29 30 31 30 27 26 26 29 28 18 21 33 33 35
42 42 41 41 40 40 39 39 39 39 39 38 38 39 40 42 43 42 40 46 47 41 42 45 45 45 44 42 37 41 37 41 40 37 38 36 34 33 31 26 33 27 29 29 30 29 32 35 28 34 35 34 36 37
40 40 40 40 39 39 39 39 39 39 39 40 40 40 38 40 42 42 40 44 41 38 38 42 42 46 48 47 49 36 42 43 43 43 40 40 34 35 31 32 34 33 34 29 31 35 37 38 39 38 38 37 38 39
40 39 38 39 39 40 40 40 40 40 41 41 41 41 41 42 40 44 40 44 40 40 37 38 48 48 51 51 50 48 43 48 46 44 40 38 35 39 36 35 35 34 35 35 36 38 38 39 37 36 36 35 35 34
40 39 39 39 39 39 39 40 40 40 41 41 41 41 42 42 45 43 44 44 43 41 38 37 43 47 50 51 51 48 47 47 42 39 37 35 38 37 36 36 35 34 34 33 30 37 34 37 36 36 35 34 33 32
40 40 40 39 39 40 39 39 39 39 40 41 42 42 46 45 43 40 38 44 47 43 40 35 44 47 49 52 49 47 47 47 44 41 41 41 42 37 34 31 34 38 38 35 33 39 37 36 35 35 34 33 32 31
40 40 40 40 40 40 41 42 43 40 41 43 45 45 45 44 41 37 34 40 46 43 38 35 36 45 49 49 47 48 47 45 45 43 41 39 41 36 32 30 36 38 37 37 37 36 34 34 33 33 32 32 31 31
41 40 38 41 41 41 41 42 42 43 43 44 45 45 44 42 41 37 46 47 44 40 40 35 36 40 46 44 44 45 43 42 42 42 41 40 40 37 31 36 37 36 36 36 36 36 35 33 32 31 32 31 31 30
42 42 41 42 43 44 44 44 45 44 44 45 45 45 43 40 36 40 47 45 48 39 35 35 35 33 43 41 41 41 40 37 41 39 40 40 37 37 36 36 36 36 36 34 33 33 33 32 32 31 30 28 27 27
43 43 43 43 43 43 43 44 45 45 45 45 41 37 34 38 47 47 43 41 42 42 41 37 39 38 41 38 38 39 37 37 35 38 40 37 36 37 37 37 37 36 35 34 33 32 32 32 31 30 28 27 27 26
43 43 43 43 43 43 43 43 44 45 42 38 37 37 43 46 40 39 35 33 35 34 36 37 39 38 41 37 36 37 36 34 33 36 35 33 33 34 37 37 36 36 35 35 35 34 33 32 31 29 28 27 26 26
42 43 43 43 43 43 42 42 44 41 39 40 42 46 46 42 37 33 32 33 34 32 35 37 38 39 40 39 36 36 34 32 31 36 33 31 33 36 36 36 36 36 35 34 34 34 33 32 30 29 28 27 27 26
42 42 42 43 42 42 41 42 43 45 43 43 41 38 37 33 31 30 28 29 30 34 36 37 36 37 36 35 33 32 29 29 33 32 30 31 35 37 36 35 35 35 34 33 32 31 30 29 28 27 26 26 23 20
43 42 41 42 42 42 42 43 43 44 44 37 35 30 31 29 29 29 31 31 34 34 36 36 34 35 35 33 32 31 32 31 26 25 26 32 35 35 34 33 33 32 31 30 30 29 27 25 24 24 24 20 17 13
45 45 45 44 43 43 43 44 44 42 36 33 32 27 27 30 31 32 33 33 34 36 35 34 34 34 32 32 32 32 30 26 26 26 30 33 35 32 31 31 30 29 29 29 29 28 26 23 21 21 20 18 16 16
42 41 41 46 46 46 46 44 40 38 35 32 30 30 32 31 30 31 32 33 34 34 35 33 32 31 30 31 30 28 26 25 27 30 32 33 31 30 30 30 30 30 29 29 28 28 26 23 20 19 19 16 15 14
40 39 41 43 45 43 40 36 32 31 31 29 28 31 31 30 29 30 31 31 34 33 31 29 28 29 32 28 26 27 25 27 30 32 31 31 31 30 30 30 30 30 29 28 26 24 22 21 17 15 15 16 15 15
38 40 42 42 41 39 38 35 30 29 27 29 27 28 28 28 29 29 30 31 32 33 32 29 27 22 21 23 23 27 28 29 30 31 31 31 31 32 32 30 30 29 28 25 23 21 20 18 17 16 17 17 16 15
38 39 39 38 38 36 34 34 33 27 29 30 31 31 29 27 28 29 29 31 30 29 26 23 18 18 19 22 22 27 29 29 28 29 30 31 32 31 31 30 29 26 24 23 20 18 17 17 18 18 16 17 17 16
32 34 35 37 35 34 31 32 34 30 27 29 29 25 26 25 27 26 26 24 24 24 21 18 17 18 20 22 24 28 30 31 30 28 27 27 28 28 27 27 25 24 21 20 18 18 17 16 16 15 14 14 14 13
29 32 32 34 34 34 32 31 30 31 31 29 31 28 24 23 20 18 18 21 18 21 18 20 19 21 23 23 25 25 27 29 28 28 25 23 24 24 23 23 22 20 18 18 17 16 16 15 16 15 12 11 12 13
30 32 26 27 27 30 30 32 31 32 30 30 29 30 26 22 20 19 16 15 16 18 20 19 19 20 19 19 20 22 23 22 22 20 21 21 19 18 18 19 18 16 16 16 15 13 13 14 14 13 11 10 11 9
30 28 26 23 20 22 25 30 28 29 25 26 27 25 24 23 23 20 15 16 16 19 21 20 20 19 18 19 18 19 21 19 17 17 17 16 16 16 15 16 16 15 14 14 15 13 12 13 11 10 7 6 7 6
25 21 21 21 21 19 20 23 25 26 26 23 22 21 23 19 19 14 11 12 14 17 16 17 17 15 14 13 14 14 17 16 15 16 16 14 12 11 12 11 11 11 12 11 10 8 7 6 6 5 4 4 4 4
18 20 17 17 19 18 16 16 20 19 19 20 19 20 21 17 12 11 9 11 12 12 14 14 13 13 12 12 12 13 14 13 12 11 13 14 12 10 9 8 7 7 6 3 3 3 3 2 1 0 2 2 3 2
18 22 21 21 21 20 20 17 19 19 18 18 20 20 12 9 7 7 10 12 11 12 13 13 12 10 10 11 10 10 12 11 9 7 7 8 9 9 5 3 3 5 5 1 1 1 1 1 1 0 -1 1 2 1
17 18 19 21 21 21 17 15 14 13 14 14 15 12 7 5 5 9 14 15 12 14 14 14 12 11 10 10 11 11 11 11 9 9 9 8 7 6 4 4 4 6 6 4 4 4 3 2 2 0 -0 -2 -1 -1
23 22 16 15 15 15 15 13 12 12 12 15 7 4 4 4 5 11 13 15 15 13 10 8 7 6 5 6 7 9 9 8 7 6 5 3 3 5 5 5 5 6 5 4 4 3 3 3 3 2 1 0 0 -1
19 18 15 14 13 13 12 11 10 12 12 11 5 4 4 7 8 10 13 14 14 11 9 7 6 4 3 3 2 0 -0 -0 -2 -6 -6 -4 -2 0 2 2 1 1 1 1 2 5 7 4 3 2 1 -0 -0 -2
16 15 14 13 11 11 11 12 9 7 9 9 8 6 6 7 9 12 11 9 7 6 5 5 5 4 2 1 1 2 2 -0 -0 -2 -2 -2 -1 1 -2 -1 -1 -1 -2 -2 -1 -2 -1 -2 -2 -3 -3 -4 -3 -3
14 14 13 14 13 11 8 8 7 5 3 3 3 3 4 6 7 9 8 7 5 3 3 3 3 1 2 1 0 0 1 2 1 1 0 1 -1 -1 -2 -2 -4 -5 -5 -5 -4 -4 -5 -5 -6 -6 -6 -6 -5 -5
13 13 13 12 13 13 13 15 9 8 7 6 6 5 4 0 1 5 7 6 5 4 3 2 4 4 1 -2 -2 -0 2 1 0 1 2 1 1 0 -2 -2 -4 -5 -4 -5 -7 -6 -6 -6 -7 -9 -10 -9 -9 -8
10 9 10 13 13 12 14 14 11 8 7 7 7 6 3 -0 0 4 5 2 1 1 2 3 3 1 1 -1 -1 -1 -1 -2 -2 1 2 1 1 0 -1 -2 -4 -4 -4 -5 -6 -6 -6 -7 -9 -10 -11 -12 -12 -12

GFSWCAN_sfc_30mbdewp_060.txt.gz
Dewpoint
42 41 41 42 42 40 44 44 43 43 42 41 41 41 41 41 42 39 37 42 39 37 41 45 41 36 36 34 31 36 39 40 39 32 32 32 30 31 31 32 32 30 28 28 26 25 24 28 24 20 22 28 31 32
42 42 44 43 41 44 43 43 42 42 42 41 40 39 40 41 40 37 34 40 44 41 41 44 44 45 38 37 36 41 33 38 38 37 36 34 32 32 30 27 32 30 31 29 29 28 32 31 27 29 30 30 34 33
42 42 41 42 42 42 42 42 42 41 41 40 39 39 40 40 39 35 35 39 41 38 39 41 42 46 47 45 43 36 40 43 41 42 39 37 33 33 29 30 32 32 33 29 30 32 34 37 38 37 37 35 37 38
40 40 41 41 41 41 41 41 40 40 39 39 39 39 39 40 40 37 36 40 41 40 35 37 46 47 50 48 48 45 42 46 45 43 39 37 34 38 33 34 33 34 34 32 32 35 38 38 38 36 36 37 37 34
39 38 39 39 39 39 39 39 39 39 39 38 38 40 40 40 41 39 40 43 43 40 36 37 41 46 50 50 50 49 47 45 41 39 38 36 37 37 36 36 34 36 33 31 30 32 31 33 37 36 36 35 35 33
39 40 40 40 40 40 39 39 39 39 38 39 39 39 40 41 42 39 35 43 43 42 37 32 39 42 49 50 50 49 48 46 42 38 37 40 41 37 33 32 34 37 37 36 33 38 37 36 35 35 34 33 33 32
40 40 40 40 40 40 40 40 40 40 40 40 40 40 41 42 41 37 36 42 45 42 36 34 34 41 48 49 47 47 47 45 43 41 40 39 41 36 31 30 34 38 38 38 37 36 35 35 34 33 32 31 31 30
40 40 40 40 40 40 40 40 41 41 41 41 41 42 42 43 44 39 46 45 42 38 38 34 34 38 46 43 43 45 42 42 42 41 40 39 40 37 36 35 36 36 36 35 35 35 35 33 32 31 31 31 30 30
40 40 40 40 41 42 38 39 39 41 40 42 43 44 43 40 35 38 46 44 44 37 33 33 33 32 42 41 41 41 41 38 40 39 39 40 37 37 37 36 36 36 36 33 33 33 32 31 31 31 30 29 29 28
41 41 40 42 42 42 41 40 40 42 44 43 40 37 34 38 46 43 41 36 37 39 39 34 38 36 39 37 36 37 37 36 35 37 39 37 36 37 38 38 37 35 34 33 32 32 31 30 30 29 28 28 28 28
43 43 43 43 44 43 42 42 43 44 41 38 35 36 41 43 42 39 34 34 35 34 36 36 37 35 41 36 36 36 34 35 33 35 35 34 33 36 38 39 39 37 36 36 35 34 33 31 29 27 27 28 28 28
43 43 43 43 43 43 43 43 43 41 40 39 42 43 43 37 36 32 31 33 33 32 35 35 37 38 39 40 36 34 32 32 32 36 34 31 33 36 36 36 36 35 35 34 34 33 32 30 29 29 29 28 27 23
43 43 43 43 42 43 43 44 43 42 41 40 39 38 37 33 29 27 27 30 31 33 35 37 35 36 36 36 33 31 30 30 34 32 31 31 35 36 36 35 35 35 35 34 33 33 32 31 30 29 27 24 21 20
43 43 43 42 42 42 42 44 42 41 39 36 32 29 30 28 29 30 31 31 33 34 35 35 34 35 34 33 32 30 31 30 28 27 27 32 34 35 34 34 33 32 32 32 31 30 29 28 26 25 24 21 18 17
42 42 43 43 43 42 43 41 42 41 35 31 31 26 27 30 31 32 32 33 33 35 35 34 34 34 32 31 31 32 29 26 26 25 29 32 33 33 32 32 31 30 30 29 27 26 26 25 24 21 18 17 18 18
43 42 42 43 43 42 42 42 41 39 33 31 29 29 31 30 29 30 31 32 33 34 34 34 32 31 30 31 28 26 26 24 26 29 32 32 31 31 30 30 30 30 29 28 27 26 25 23 20 17 16 16 16 15
41 39 44 43 43 43 42 38 35 32 30 29 27 28 29 29 27 28 29 29 33 34 30 31 29 28 31 26 24 26 24 26 29 30 31 31 30 30 30 29 29 29 28 27 26 25 21 19 17 14 13 14 14 14
39 43 44 42 41 40 38 35 31 31 27 29 25 26 26 26 25 26 28 30 32 32 28 25 24 21 19 20 21 25 28 29 30 30 30 30 30 31 30 29 28 27 26 26 24 21 17 16 16 16 16 15 15 15
40 42 43 42 40 37 33 33 32 27 27 29 28 28 27 25 26 27 27 29 28 26 23 19 15 15 16 19 19 22 27 29 27 28 28 30 30 29 28 27 26 24 23 22 20 20 19 19 18 18 18 17 16 14
38 38 40 42 40 34 31 31 33 29 26 25 25 22 22 22 24 24 23 25 24 22 17 15 14 16 17 19 22 23 29 31 27 24 23 24 25 25 24 23 22 21 20 19 19 19 18 17 17 16 16 16 15 13
32 32 34 38 35 34 31 31 30 31 30 26 27 25 23 22 18 17 17 17 16 17 15 17 17 19 20 21 22 23 23 23 22 23 21 18 21 21 20 20 20 19 17 16 15 15 15 14 15 14 13 13 13 13
30 30 24 28 31 31 29 31 30 31 30 29 29 27 23 19 18 17 14 13 13 16 18 17 17 18 17 17 19 21 21 20 20 18 18 18 16 16 16 17 15 14 14 14 13 12 13 13 13 11 10 11 12 10
29 26 24 23 21 24 26 30 27 29 25 25 26 23 20 19 20 16 12 14 14 17 18 19 18 18 17 17 18 18 19 17 15 15 14 13 13 13 12 12 13 12 11 11 12 10 9 10 8 7 6 6 6 5
23 19 18 19 19 18 21 23 27 25 25 23 22 20 20 18 18 12 9 10 13 15 15 16 17 15 14 13 12 12 15 15 13 13 13 10 9 8 8 7 7 8 9 8 6 5 4 3 2 3 2 2 1 1
19 20 18 18 19 16 15 18 19 19 19 20 20 19 17 16 11 9 7 9 11 11 12 13 13 12 11 11 11 11 11 11 10 8 11 11 9 6 5 5 5 4 4 1 0 0 1 -0 -1 -2 -0 -0 0 -0
17 20 18 18 19 17 18 16 16 16 16 17 16 13 9 6 5 5 8 10 10 11 11 12 10 9 8 9 8 9 10 8 6 5 6 6 5 3 3 2 3 4 3 1 2 1 1 0 -0 -0 -1 -1 -1 -2
15 15 16 17 18 17 12 11 11 10 11 11 11 6 4 3 3 8 12 12 11 10 11 11 10 9 9 8 9 9 8 8 7 6 6 5 5 5 3 2 1 3 4 3 2 2 2 1 -0 -0 -1 -3 -2 -4
20 17 12 12 11 11 11 9 8 8 9 11 3 2 2 2 4 10 12 12 10 8 7 6 6 6 6 6 7 6 6 6 5 2 1 0 1 2 1 1 0 2 -0 -1 0 -1 -0 0 0 -1 -2 -2 -1 -3
15 14 12 10 9 9 9 8 6 7 8 7 2 1 2 5 7 9 11 12 11 7 4 2 1 2 2 2 1 -0 -2 -4 -6 -6 -5 -4 -3 -1 -3 -3 -2 -3 -4 -3 -1 3 5 2 1 -1 -2 -4 -5 -8
13 12 11 9 7 6 5 6 4 3 7 7 7 5 4 5 7 10 8 7 6 4 3 2 0 -1 -1 -1 -0 1 -1 -2 -2 -3 -4 -3 -2 -1 -4 -3 -3 -4 -7 -6 -4 -5 -4 -6 -6 -8 -8 -9 -9 -8
11 11 12 10 7 6 4 4 4 3 2 2 1 1 1 4 6 7 5 3 1 0 1 1 1 -2 -1 -1 -2 -2 -1 -0 -1 -2 -2 -2 -3 -2 -3 -4 -6 -9 -9 -8 -7 -6 -6 -7 -9 -10 -10 -10 -11 -11
11 10 11 10 9 9 8 10 6 5 5 4 5 2 -1 -1 -1 3 4 4 3 3 1 0 2 3 -1 -4 -5 -4 -1 -1 -1 -2 -1 -1 -1 -2 -4 -5 -7 -9 -8 -8 -9 -8 -9 -8 -9 -11 -12 -12 -13 -13
8 7 8 10 10 9 10 10 8 6 5 6 5 3 -0 -2 -1 2 3 -2 0 1 2 2 -0 -1 -1 -1 -2 -2 -3 -4 -5 -2 -1 -1 -2 -4 -6 -6 -7 -8 -7 -7 -9 -9 -9 -10 -10 -12 -13 -14 -14 -15

GFSWCAN_sfc_30mbdewp_063.txt.gz
Dewpoint
42 41 41 43 42 42 42 42 42 42 42 45 44 43 42 42 42 38 40 41 39 37 37 41 38 33 32 33 30 34 33 34 36 30 29 28 28 27 28 33 32 29 28 26 25 23 22 30 23 22 25 26 27 32
43 43 42 42 42 42 42 42 42 41 45 44 43 43 42 42 43 39 37 43 43 38 40 43 43 43 34 33 33 37 33 35 35 32 32 31 31 32 29 25 34 31 30 27 27 26 32 28 27 27 28 27 31 33
44 43 42 42 42 42 41 41 42 44 44 43 43 42 42 41 41 38 37 40 39 36 38 39 41 45 47 41 37 37 39 41 40 41 37 35 32 33 30 30 31 33 35 31 30 31 32 34 36 37 36 32 35 37
41 42 43 44 43 43 43 44 43 43 42 42 42 41 42 43 40 36 36 40 38 38 34 37 45 46 48 45 40 39 40 45 44 42 39 37 32 36 31 32 32 34 34 33 32 33 36 37 38 38 36 38 37 35
41 41 41 41 41 42 42 42 42 43 42 42 41 41 42 40 37 37 40 40 39 38 33 36 41 45 49 47 46 43 43 43 41 39 38 37 37 37 36 36 34 36 33 31 29 32 30 30 36 38 36 37 35 33
40 40 40 41 41 42 42 42 42 42 41 41 41 42 41 38 38 35 33 40 42 40 36 33 39 41 49 50 48 47 47 44 42 39 37 38 40 38 34 33 35 37 37 37 34 37 36 36 36 36 36 35 34 32
41 40 40 40 40 40 40 40 40 40 40 40 41 41 40 39 36 34 34 40 40 42 35 32 34 41 48 48 47 46 48 46 43 40 39 40 41 37 33 33 33 37 38 38 37 36 35 35 35 34 33 32 31 30
40 40 40 40 40 40 39 39 39 39 39 39 38 37 39 39 38 36 44 43 41 38 37 31 33 39 45 42 42 45 43 44 42 41 39 39 39 36 35 34 37 36 36 35 35 35 35 33 32 31 31 31 31 30
41 40 40 40 40 40 40 39 39 39 39 39 40 40 40 37 34 37 45 44 44 38 32 32 32 33 41 39 39 40 41 38 40 39 39 39 37 37 37 36 36 36 36 34 33 33 33 32 31 31 31 31 30 29
41 41 40 40 40 41 41 40 40 40 39 40 39 35 32 37 42 45 42 38 38 37 36 32 35 35 38 35 35 36 36 35 34 38 40 38 37 37 38 37 37 36 34 33 33 32 31 31 31 30 30 30 29 28
43 41 42 40 39 39 39 40 40 40 41 37 36 35 39 45 42 39 32 32 33 32 35 34 36 36 40 35 34 35 33 32 31 35 37 35 34 36 38 39 37 35 34 37 37 34 33 32 30 29 29 29 29 27
43 43 42 40 39 40 41 41 42 41 39 38 40 42 42 36 35 31 31 33 33 29 35 33 35 37 38 39 35 34 32 32 30 36 35 32 33 35 37 37 37 37 36 34 34 33 32 31 30 29 29 29 28 27
43 42 42 41 41 43 43 43 42 41 41 40 37 35 35 33 28 27 26 29 29 33 35 36 35 37 36 35 33 32 30 30 33 32 31 30 34 35 35 35 35 35 33 32 31 30 30 30 30 28 27 27 27 25
42 43 42 42 43 42 41 40 40 39 37 33 32 28 29 28 29 29 30 30 32 34 35 36 34 35 34 33 32 30 32 31 29 28 26 31 33 34 34 34 32 31 31 31 30 29 28 27 26 26 26 26 25 22
42 42 42 42 42 41 41 40 40 38 34 30 31 26 27 30 31 31 32 32 33 35 35 34 34 34 32 31 32 31 29 26 26 25 29 31 32 32 31 31 30 29 29 28 27 26 25 25 24 24 24 23 20 19
42 40 41 43 42 41 41 39 38 37 33 31 27 27 29 28 27 28 30 30 32 34 35 34 32 30 29 30 28 26 25 23 25 28 31 31 30 30 30 29 29 28 27 26 26 26 25 23 22 20 19 18 17 17
41 40 43 42 42 40 39 37 35 32 30 28 24 26 25 26 23 25 27 27 31 33 30 31 27 25 29 24 22 25 22 25 27 28 30 30 29 28 28 28 28 27 26 25 25 24 22 21 19 15 13 14 15 16
40 43 43 42 40 38 37 35 32 31 26 27 22 24 23 23 23 24 26 28 31 29 24 22 22 18 17 18 18 20 25 28 29 29 29 29 29 29 28 26 26 25 24 23 23 22 21 17 16 15 14 15 15 15
42 43 42 40 39 36 32 32 32 24 23 25 24 24 24 22 23 23 25 26 25 23 22 18 14 13 14 17 17 19 22 27 24 24 24 26 26 25 24 24 23 22 22 21 20 20 20 20 19 18 17 16 14 12
41 42 41 40 38 33 30 31 32 25 22 22 23 20 20 19 21 21 20 20 19 17 14 12 12 14 15 17 20 21 26 28 24 20 19 20 22 22 21 21 20 20 19 19 18 18 17 16 16 16 17 17 15 13
37 37 39 37 34 33 31 30 30 30 27 23 24 22 21 19 16 15 15 16 12 14 12 14 15 17 19 19 21 22 21 22 20 20 18 17 19 19 18 18 18 17 15 15 14 13 13 13 13 13 13 13 13 13
31 33 31 34 32 32 29 31 30 31 29 27 27 24 20 17 16 15 12 11 11 13 16 15 15 16 15 16 17 19 19 18 17 16 16 16 14 14 14 15 13 12 12 12 11 11 10 10 10 10 10 10 10 9
29 26 23 23 23 25 26 30 26 28 23 24 25 20 18 17 17 13 11 12 12 15 17 17 17 17 15 16 16 16 17 15 13 13 12 11 11 11 10 10 11 10 9 9 8 7 6 6 5 5 5 5 5 4
23 19 18 19 18 18 21 22 25 24 23 23 21 18 17 16 15 10 7 9 12 14 13 14 16 14 13 12 10 12 14 14 12 11 12 8 6 5 4 4 4 5 5 4 3 2 1 0 1 1 1 1 -0 -0
16 18 17 17 18 16 17 17 17 18 18 19 17 15 15 16 9 7 6 8 10 10 11 13 11 12 10 10 10 9 11 10 8 7 8 6 5 4 4 4 4 4 4 2 1 1 1 0 -0 -0 -0 -1 -1 -1
15 17 15 15 16 14 14 13 13 13 13 13 12 9 8 7 5 4 7 10 9 9 9 10 10 8 7 8 7 7 7 5 3 3 4 5 4 3 3 2 2 3 4 3 2 1 1 0 -0 -1 -1 -0 -2 -2
12 13 14 14 15 12 9 9 9 8 8 8 7 3 2 1 2 7 10 11 9 8 9 9 9 7 6 6 6 6 6 6 5 4 4 3 3 3 2 1 0 2 3 1 1 1 1 0 -1 -1 -2 -2 -2 -4
16 13 10 9 8 8 7 6 5 5 6 8 1 -0 -0 0 2 8 9 9 9 8 7 6 6 5 5 5 5 5 4 3 3 2 1 -0 -0 -1 -2 -2 -2 -1 -3 -2 -1 -1 -1 -1 -1 -2 -3 -4 -4 -5
13 11 8 6 6 4 3 2 1 3 6 5 0 -1 1 3 5 8 9 9 7 5 4 3 1 1 1 1 -0 -1 -3 -1 -5 -7 -7 -5 -4 -1 -3 -3 -3 -4 -5 -3 -2 3 1 0 -3 -6 -7 -7 -8 -10
11 10 7 4 3 1 2 3 2 3 5 6 5 3 3 3 5 8 8 8 5 3 0 -2 -2 -2 -2 -2 -1 0 -2 -2 -3 -4 -5 -3 -3 -1 -4 -4 -4 -6 -7 -5 -4 -4 -4 -6 -7 -9 -10 -10 -10 -10
8 9 7 5 4 3 3 2 1 1 -0 0 -0 -1 -0 2 4 5 3 1 1 0 -0 -1 -1 -4 -1 -2 -2 -2 -1 -2 -5 -4 -3 -2 -3 -3 -4 -5 -7 -9 -8 -7 -7 -6 -7 -7 -9 -10 -10 -11 -12 -13
8 8 7 6 5 5 5 5 4 4 3 3 3 -2 -2 -2 -1 2 2 3 2 2 0 -1 1 2 -2 -4 -6 -6 -4 -3 -3 -3 -2 -2 -2 -3 -5 -6 -9 -9 -8 -8 -9 -9 -9 -9 -9 -11 -11 -12 -13 -14
6 5 6 8 7 5 6 7 5 5 3 3 2 -0 -2 -3 -1 1 -1 -5 1 2 2 1 -0 -2 -2 -3 -2 -3 -5 -5 -6 -3 -3 -3 -3 -4 -5 -7 -8 -8 -7 -7 -9 -10 -10 -10 -10 -11 -12 -13 -14 -14

GFSWCAN_sfc_30mbdewp_066.txt.gz
Dewpoint
44 44 43 42 42 43 43 41 42 43 44 43 45 45 44 44 43 39 40 42 38 34 31 30 32 32 28 27 30 29 31 35 35 32 30 31 30 30 28 31 33 31 31 30 31 29 25 30 26 23 26 33 29 31
43 42 42 42 43 43 44 43 43 43 43 42 43 45 44 43 43 38 38 42 41 36 37 42 43 40 31 30 30 35 27 32 35 31 32 31 34 33 29 26 31 29 32 30 30 28 37 30 28 29 32 30 32 31
43 41 42 42 42 43 43 43 43 42 41 42 44 44 44 44 42 37 39 42 38 37 34 37 36 38 44 38 34 33 32 29 34 36 36 36 34 36 32 28 25 31 35 34 32 29 32 34 32 36 33 32 33 34
42 42 41 42 42 43 42 43 42 41 44 45 44 44 43 44 42 40 39 40 35 35 31 34 43 40 44 42 36 35 32 43 41 41 40 38 33 34 32 30 31 31 35 31 32 32 35 36 37 36 36 37 37 36
42 42 43 40 41 42 43 42 42 43 44 44 44 43 44 44 41 41 41 38 36 32 32 34 38 38 45 43 38 36 42 42 43 41 39 37 38 39 39 38 36 35 33 34 33 34 33 31 38 38 38 37 37 36
42 42 42 43 44 43 43 44 44 44 43 43 43 44 42 41 40 36 35 39 40 38 34 30 39 36 43 42 38 38 37 41 40 38 38 38 42 38 37 33 32 35 37 37 35 38 38 38 37 38 39 38 37 35
40 42 42 43 42 42 42 42 42 42 43 43 43 42 40 37 35 31 30 36 41 39 34 30 31 41 45 42 41 39 39 39 40 38 40 38 41 39 39 34 33 37 38 39 39 38 37 36 36 36 37 36 35 34
40 40 41 42 42 42 42 42 43 43 42 41 40 39 36 36 36 34 44 42 38 35 37 29 31 38 46 42 41 46 43 44 43 39 42 39 42 41 38 35 33 36 37 38 37 37 37 36 35 34 34 33 32 31
40 40 40 40 41 41 41 41 42 41 40 40 40 38 36 32 31 38 41 39 39 36 31 31 30 32 42 40 42 41 43 39 42 41 40 41 40 36 34 34 37 37 37 37 35 35 35 35 34 33 34 33 33 32
40 40 40 40 40 40 39 39 39 40 40 39 35 34 30 34 45 41 38 37 37 37 37 31 35 32 39 38 37 38 40 37 35 38 43 39 36 37 39 39 39 38 37 36 35 34 34 33 33 33 33 33 32 30
40 41 40 40 40 40 39 40 40 40 38 35 34 33 38 43 40 37 31 32 33 31 34 34 35 36 41 36 34 37 35 35 32 36 37 36 35 37 39 39 38 37 36 37 37 35 34 34 33 32 31 31 29 28
40 40 40 40 40 40 40 40 38 35 36 37 38 39 37 35 33 31 30 31 31 29 35 34 36 38 39 40 36 36 33 33 31 35 33 31 32 36 38 38 37 37 36 36 37 35 33 32 32 31 30 29 28 28
40 40 40 40 41 40 40 40 39 41 42 42 36 34 33 33 29 27 26 29 29 34 36 37 35 38 39 38 34 34 32 32 34 32 29 29 33 35 36 35 34 33 32 32 32 31 31 30 30 28 27 27 27 27
40 41 40 41 39 40 42 41 42 40 39 34 32 28 30 28 30 30 31 32 35 36 36 37 35 38 37 34 34 31 32 34 31 29 26 30 31 32 33 33 31 30 30 29 29 28 27 27 27 28 28 28 26 25
41 43 42 42 42 41 39 39 39 39 35 31 32 26 28 30 31 31 33 33 33 37 36 36 36 36 33 32 33 32 30 27 27 26 29 30 31 31 30 30 28 27 27 27 27 26 27 27 26 26 26 26 25 24
40 41 42 40 39 38 39 39 38 37 34 30 24 25 26 27 25 27 28 30 32 34 35 35 32 31 30 31 29 27 27 24 25 27 30 30 29 28 28 28 27 27 27 27 27 26 25 24 23 23 23 22 22 21
41 40 40 39 39 38 38 38 36 32 29 27 23 25 24 24 22 24 26 26 30 33 31 32 28 26 30 26 23 24 22 24 27 28 30 30 29 28 28 28 28 27 26 26 25 24 23 21 18 16 14 14 15 17
40 41 40 39 39 38 37 36 32 30 24 24 21 23 23 22 21 21 24 27 30 29 27 23 26 20 19 19 19 21 24 26 27 27 27 28 28 28 28 26 26 25 24 24 24 24 23 20 16 15 14 14 14 14
42 42 41 40 39 36 33 32 33 22 22 23 23 23 23 22 23 22 23 26 26 27 24 21 16 14 15 18 18 22 26 26 22 23 24 25 26 25 25 24 24 23 22 22 21 20 20 18 17 17 17 16 15 16
41 40 39 38 37 33 31 31 32 25 22 23 24 20 20 20 21 21 20 21 20 16 13 12 12 14 15 18 20 23 27 26 23 21 20 21 23 22 23 22 21 21 20 19 19 17 16 16 16 17 17 17 16 15
38 38 38 37 35 33 31 30 29 27 26 23 24 22 21 20 17 14 12 12 12 12 11 14 15 17 19 20 22 23 23 23 22 20 19 17 20 20 19 20 20 19 17 16 15 14 14 14 14 15 15 15 14 14
35 34 34 35 33 32 31 31 30 31 28 26 24 21 19 16 15 14 10 9 9 12 15 15 15 16 15 16 17 19 19 18 18 17 18 18 16 16 16 17 16 14 14 14 13 12 10 10 11 10 11 10 9 8
29 28 26 26 26 27 27 30 27 28 24 25 24 18 17 16 16 11 10 10 11 15 17 16 16 16 15 17 16 16 17 15 14 13 13 13 13 13 12 12 12 11 10 8 7 6 5 4 5 6 6 5 6 5
25 22 21 21 21 20 24 22 23 23 23 20 16 15 15 15 13 9 7 9 12 14 14 15 16 14 14 12 11 13 14 14 12 12 12 8 6 4 4 4 4 5 4 4 4 5 4 4 4 4 3 3 2 2
16 17 19 17 19 18 18 17 17 18 18 18 14 14 14 13 9 7 7 9 10 10 12 13 13 13 10 10 10 10 12 11 8 6 6 6 5 4 3 3 4 4 5 5 4 3 3 3 3 2 1 1 0 1
13 16 15 15 16 14 14 13 14 14 15 13 11 11 11 8 5 5 6 9 9 9 10 11 11 9 8 9 7 6 5 4 3 3 4 5 5 5 5 4 3 3 5 5 4 3 2 2 1 1 1 0 -0 -0
12 13 14 12 14 13 12 11 11 10 9 9 9 7 5 3 3 6 9 10 9 9 11 12 11 9 5 4 4 5 5 5 4 3 3 3 3 4 4 2 2 3 3 3 4 3 2 2 1 0 0 0 0 -0
15 12 9 10 9 8 8 7 6 6 7 7 5 2 2 2 3 8 9 10 11 10 9 7 7 6 6 6 6 5 4 4 3 2 2 1 1 2 1 1 1 0 1 2 3 2 1 1 -0 -1 -2 -2 -2 -2
13 13 9 4 5 4 4 4 4 5 6 6 3 2 2 4 6 9 10 10 11 10 8 5 5 5 4 3 3 4 5 5 -0 -3 -2 -1 0 1 1 1 1 1 1 1 1 1 -0 -0 -2 -3 -4 -3 -3 -3
12 12 7 3 2 3 4 5 4 6 6 6 4 3 3 4 7 10 10 10 8 6 5 4 4 4 4 3 2 1 2 3 3 1 -1 -0 1 1 1 1 1 0 0 0 -0 -1 -1 -2 -2 -3 -4 -4 -4 -5
12 12 7 5 4 5 5 6 6 5 5 4 4 3 2 4 6 7 6 6 6 5 4 3 2 3 3 2 2 1 0 2 0 1 2 2 1 1 1 -0 -0 -0 -1 -1 -2 -2 -3 -3 -4 -4 -5 -6 -7 -7
11 9 7 5 6 7 8 8 8 6 7 5 5 4 4 4 3 4 5 6 5 4 2 4 5 4 3 2 1 1 -2 1 1 1 1 1 1 -0 -1 -1 -2 -2 -2 -2 -3 -4 -5 -5 -5 -6 -6 -7 -8 -9
10 10 10 8 7 7 8 9 7 6 6 5 5 4 3 3 2 4 3 3 6 6 5 6 5 4 2 1 1 1 -1 1 -1 -0 -0 -0 -2 -2 -1 -1 -2 -3 -3 -3 -4 -5 -5 -6 -6 -7 -7 -8 -9 -9

GFSWCAN_sfc_30mbdewp_069.txt.gz
Dewpoint
43 43 43 43 43 43 43 42 43 43 43 42 43 44 44 43 45 43 41 40 36 30 28 28 28 25 26 24 21 23 29 34 33 31 28 24 25 27 20 25 33 32 31 34 33 30 27 29 28 24 28 28 29 27
43 43 43 42 42 42 42 42 42 43 42 43 43 44 44 43 45 43 40 40 39 34 30 38 30 38 30 26 24 26 31 30 30 28 27 25 30 31 25 21 25 33 33 32 30 30 32 31 28 30 31 33 31 32
43 42 43 44 43 44 44 44 42 42 42 44 43 44 44 45 44 43 41 41 38 35 35 36 35 38 40 38 38 29 33 28 28 29 28 32 31 30 29 28 21 24 24 30 31 30 31 33 33 32 34 34 32 35
43 41 42 43 43 42 42 42 42 43 44 43 44 45 44 45 44 43 40 40 36 35 31 27 31 36 40 42 41 40 36 31 29 31 33 36 33 30 31 24 24 23 24 26 26 27 26 33 37 36 35 36 35 34
43 41 41 43 43 43 43 44 44 43 43 44 44 44 45 43 43 41 40 38 36 29 28 27 36 37 36 43 41 41 41 33 35 34 36 36 27 22 33 34 28 25 28 32 30 29 32 31 39 41 38 37 38 36
43 44 42 43 43 43 42 42 42 42 43 44 45 45 43 43 41 38 36 40 37 38 33 29 36 36 36 37 41 42 42 34 35 33 34 29 23 27 32 29 25 22 27 32 33 38 39 40 38 37 38 39 39 38
43 43 44 43 43 44 43 44 44 44 44 45 44 43 42 39 37 35 34 36 39 36 32 27 30 37 38 35 33 39 40 37 36 37 39 35 31 36 36 32 24 26 29 35 39 39 37 38 37 37 38 38 37 37
42 43 42 43 43 43 44 44 43 43 43 42 42 42 42 42 40 38 39 40 36 33 35 28 30 34 41 36 37 40 38 37 36 37 37 38 40 40 34 31 29 29 34 38 39 39 38 38 37 36 36 35 35 34
41 42 43 43 42 42 42 41 42 41 41 41 41 40 40 38 37 39 40 37 34 31 29 31 27 29 40 41 42 39 37 34 39 36 38 35 35 35 29 29 30 33 34 36 37 36 36 37 35 35 35 35 34 33
40 41 41 42 41 41 41 41 40 40 39 39 37 33 34 39 41 39 37 37 33 32 35 32 35 29 35 38 38 39 40 38 35 39 37 35 34 33 32 39 39 39 39 38 37 37 36 36 35 35 35 35 35 33
40 40 40 41 41 41 41 40 38 37 37 35 33 35 39 41 39 37 32 31 30 30 32 33 34 30 37 34 36 39 37 38 34 36 37 37 33 35 39 40 40 39 38 38 37 37 36 36 35 35 34 34 33 32
40 40 40 40 40 41 40 38 38 36 37 38 37 37 36 35 32 30 29 31 30 26 32 33 32 33 36 43 36 38 34 36 32 37 35 32 32 36 38 38 38 38 38 37 36 35 35 34 34 32 30 28 28 28
41 41 41 40 40 39 38 39 40 40 42 41 30 32 32 31 28 28 25 28 29 35 35 34 32 36 40 39 36 36 32 32 36 32 30 30 32 34 34 33 33 34 34 33 32 31 30 29 29 28 27 28 28 27
40 40 41 41 41 40 38 38 41 38 38 34 32 28 29 28 31 31 30 33 35 37 37 37 36 37 38 35 35 31 33 35 31 29 29 30 30 30 31 31 29 28 28 28 28 28 28 28 28 29 29 29 28 27
42 41 40 40 41 41 39 37 39 40 36 32 31 25 26 30 30 31 33 34 34 39 38 37 37 37 34 33 34 33 30 28 28 27 28 29 30 30 28 28 27 27 27 28 29 28 28 28 27 27 28 27 26 25
41 40 40 41 41 42 41 41 39 37 32 27 24 26 27 28 26 26 28 29 31 33 40 37 34 32 30 32 30 28 29 25 25 28 29 29 28 28 28 28 28 28 28 28 28 27 26 25 24 24 24 24 24 23
40 38 40 40 40 38 38 37 33 29 27 25 23 25 26 25 22 23 25 26 29 33 31 33 29 26 32 26 23 24 22 25 28 28 30 29 28 28 28 28 28 28 27 27 27 25 23 21 20 18 17 16 17 18
38 39 40 40 40 38 36 35 30 26 23 24 21 23 23 22 21 20 23 26 29 29 27 25 25 22 21 21 20 24 25 27 28 28 29 29 29 29 28 27 27 27 26 26 24 22 21 19 17 15 14 14 15 15
40 40 39 39 39 36 33 32 30 21 22 23 23 23 22 22 23 23 25 26 26 25 23 20 16 15 16 19 20 23 27 25 23 25 25 27 27 27 27 26 26 25 24 23 21 21 20 19 19 18 18 18 18 19
40 39 38 38 38 35 31 30 33 26 23 23 25 21 20 20 22 22 22 22 22 19 16 14 13 15 17 20 23 26 26 27 25 22 22 23 25 24 24 23 23 23 21 20 19 18 17 17 17 17 17 17 16 15
38 38 38 37 35 34 31 31 29 28 28 25 25 24 22 23 19 18 17 19 15 15 13 16 17 18 21 22 24 25 25 26 24 22 20 19 22 22 22 22 21 20 19 17 16 15 15 15 15 15 16 15 14 14
35 36 36 36 33 33 31 33 31 32 29 27 26 25 21 18 17 17 16 13 12 15 16 16 17 18 16 17 19 20 20 20 20 20 21 20 18 18 18 18 16 16 15 14 13 12 11 10 10 11 11 11 9 8
30 30 31 31 29 29 27 31 28 29 26 25 24 20 19 18 16 13 12 13 13 17 19 17 16 18 17 18 17 18 19 17 16 15 15 15 15 16 15 14 13 10 8 7 7 7 7 7 8 8 8 8 7 7
26 26 25 24 24 24 27 23 23 22 21 18 16 15 15 15 14 11 9 11 14 16 15 17 19 16 15 14 13 14 15 16 14 14 15 12 8 6 6 7 7 7 7 7 7 7 7 7 6 6 5 5 4 4
18 18 21 19 21 21 20 19 19 18 16 16 14 15 15 14 10 9 9 11 12 12 15 15 15 14 12 11 11 12 14 14 12 9 8 7 6 5 4 4 5 6 7 7 6 6 6 5 4 4 3 2 2 2
15 16 16 17 17 16 17 16 16 16 16 14 13 14 14 11 8 7 8 11 11 12 13 14 12 10 9 11 9 9 7 5 5 5 6 7 7 8 6 5 4 5 6 7 6 5 3 3 2 2 2 2 0 1
14 15 14 13 15 15 16 15 14 13 12 11 12 11 9 7 5 7 10 12 10 12 13 14 13 11 9 7 6 6 5 5 4 3 3 3 4 5 6 4 3 4 4 5 4 4 3 3 2 2 1 2 1 1
14 12 11 12 10 10 10 10 9 9 9 9 10 7 5 5 6 10 11 13 13 12 11 11 11 8 7 7 7 6 6 6 5 4 4 3 3 4 3 3 2 3 3 4 4 3 3 2 2 1 0 0 -0 -0
14 14 8 5 7 7 7 7 7 7 8 10 8 5 4 5 12 11 11 13 14 13 11 9 8 7 7 6 7 7 8 7 1 1 2 3 3 3 3 3 3 3 4 3 2 2 1 1 -0 -0 -1 -0 -0 -0
13 14 8 5 5 6 6 7 7 9 8 7 5 5 5 7 9 14 14 13 12 10 9 9 9 8 7 5 4 4 5 6 7 6 3 3 3 3 3 3 3 2 3 2 2 2 0 0 0 -0 -1 -2 -2 -2
15 12 8 7 6 8 9 11 10 9 8 8 8 6 5 7 8 9 9 11 10 10 8 6 6 7 6 6 5 4 3 4 2 3 3 3 3 3 2 1 2 2 2 1 0 -0 -1 -1 -1 -2 -2 -4 -4 -4
14 11 8 6 8 10 10 11 10 9 9 8 7 7 7 8 6 7 8 10 10 8 7 7 7 6 5 4 4 3 3 3 3 2 2 2 2 1 1 1 1 1 0 -1 -1 -1 -2 -3 -2 -3 -3 -4 -5 -6
13 12 11 10 9 9 10 10 8 8 8 7 7 7 7 7 5 7 7 9 11 9 8 8 8 6 4 3 3 3 3 3 2 2 1 1 0 0 1 1 0 -0 -1 -1 -1 -2 -3 -3 -3 -4 -5 -5 -5 -6